Weather History for Glasgow, MT

Change the Weather History Date:

Thursday, May 23, 2013

  Actual Average Record
Temperature  
Mean Temperature 61 °F 57 °F  
Max Temperature 72 °F 70 °F 98 °F (1980)
Min Temperature 49 °F 45 °F 27 °F (1903)
Degree Days  
Heating Degree Days 4 8  
Month to date heating degree days 191 266  
Since 1 July heating degree days 8450 8273  
Cooling Degree Days 0 1  
Month to date cooling degree days 9 3  
Year to date cooling degree days 9 4  
Growing Degree Days 11 (Base 50)    
Moisture  
Dew Point 39 °F    
Average Humidity 50    
Maximum Humidity 71    
Minimum Humidity 28    
Precipitation  
Precipitation 0.00 in 0.07 in 1.41 in (1906)
Month to date precipitation 0.36 1.29  
Year to date precipitation 3.17 3.19  
Snow  
Snow 0.00 in 0.00 in T in (2002)
Month to date snowfall 0.0 1.1  
Since 1 July snowfall 62.3 34.7  
Snow Depth 0.00 in    
Sea Level Pressure  
Sea Level Pressure 29.98 in    
Wind  
Wind Speed 27 mph (ESE)    
Max Wind Speed 41 mph    
Max Gust Speed 49 mph    
Visibility 10 miles    
Events      
T = Trace of Precipitation, MM = Missing Value Source: NWS Daily Summary

Daily Weather History Graph

Daily Weather History Graph

Search for Another Location

Airport:

Trip Planner

Search our weather history database for the weather conditions in past years. The results will help you decide how hot, cold, wet, or windy it might be!

Date:

Astronomy

May. 23, 2013 Rise Set
Actual Time 5:17 AM MDT 8:49 PM MDT
Civil Twilight 4:38 AM MDT 9:28 PM MDT
Nautical Twilight 3:47 AM MDT 10:20 PM MDT
Astronomical Twilight 2:37 AM MDT 11:31 PM MDT
Moon 7:20 PM MDT (5/23) 4:12 AM MDT (5/23)
Length of Visible Light 16h 49m
Length of Day
15h 32m
Waxing Gibbous, 97% of the Moon is Illuminated
May 23
Waxing Gibbous
May 24
Full
May 31
Last Quarter
Jun 8
New
Jun 16
First Quarter

Hourly Weather History & Observations

Time (MDT) Temp. Dew Point Humidity Pressure Visibility Wind Dir Wind Speed Gust Speed Precip Events Conditions
12:53 AM 53.1 °F 34.0 °F 48% 30.09 in 10.0 mi East 15.0 mph - N/A   Clear
1:53 AM 51.1 °F 34.0 °F 52% 30.10 in 10.0 mi ESE 15.0 mph - N/A   Clear
2:53 AM 50.0 °F 35.1 °F 57% 30.09 in 10.0 mi East 15.0 mph - N/A   Clear
3:53 AM 50.0 °F 36.0 °F 59% 30.10 in 10.0 mi East 16.1 mph - N/A   Clear
4:53 AM 50.0 °F 37.9 °F 63% 30.09 in 10.0 mi East 19.6 mph - N/A   Clear
5:53 AM 50.0 °F 39.0 °F 66% 30.10 in 10.0 mi ESE 20.7 mph 28.8 mph N/A   Clear
6:53 AM 51.1 °F 42.1 °F 71% 30.08 in 10.0 mi East 23.0 mph - N/A   Clear
7:53 AM 54.0 °F 42.1 °F 64% 30.09 in 10.0 mi ESE 26.5 mph 33.4 mph N/A   Clear
8:53 AM 57.9 °F 43.0 °F 58% 30.07 in 10.0 mi ESE 29.9 mph 36.8 mph N/A   Clear
9:53 AM 61.0 °F 39.9 °F 46% 30.04 in 10.0 mi ESE 26.5 mph 39.1 mph N/A   Clear
10:53 AM 66.0 °F 37.0 °F 34% 30.00 in 10.0 mi SE 35.7 mph 48.3 mph N/A   Clear
11:53 AM 70.0 °F 39.9 °F 33% 29.99 in 10.0 mi ESE 32.2 mph 44.9 mph N/A   Clear
12:53 PM 66.9 °F 37.9 °F 34% 29.99 in 10.0 mi ESE 35.7 mph 41.4 mph N/A   Clear
1:53 PM 69.1 °F 37.9 °F 32% 29.97 in 10.0 mi ESE 35.7 mph 43.7 mph N/A   Scattered Clouds
2:53 PM 68.0 °F 39.0 °F 35% 29.96 in 10.0 mi ESE 33.4 mph 40.3 mph N/A   Mostly Cloudy
3:53 PM 70.0 °F 36.0 °F 29% 29.93 in 10.0 mi SE 38.0 mph 48.3 mph N/A   Partly Cloudy
4:53 PM 70.0 °F 37.0 °F 30% 29.93 in 10.0 mi SE 34.5 mph 42.6 mph N/A   Scattered Clouds
5:53 PM 69.1 °F 37.9 °F 32% 29.91 in 10.0 mi SE 32.2 mph 42.6 mph N/A   Overcast
6:53 PM 69.1 °F 39.0 °F 33% 29.88 in 10.0 mi SE 31.1 mph 40.3 mph N/A   Overcast
7:53 PM 68.0 °F 39.0 °F 35% 29.88 in 10.0 mi ESE 27.6 mph 36.8 mph N/A   Overcast
8:53 PM 66.0 °F 41.0 °F 40% 29.88 in 10.0 mi ESE 23.0 mph - N/A   Overcast
9:53 PM 64.9 °F 42.1 °F 43% 29.88 in 10.0 mi ESE 24.2 mph 31.1 mph N/A   Overcast
10:53 PM 63.0 °F 42.1 °F 46% 29.85 in 10.0 mi ESE 26.5 mph 36.8 mph N/A   Overcast
11:53 PM 62.1 °F 42.1 °F 48% 29.83 in 10.0 mi ESE 26.5 mph 34.5 mph N/A   Overcast